Location: Dziadowski
(50.3833°N, 20.0333°E)
Time: 22:03:59
(UTC+00:00)

Cosmos 921 Rocket - Pass Details

Date: 18 January 2026
Orbit: 564 x 620 km, 75.8° (Epoch: 17 February)

Event Time Altitude Azimuth Distance (km) Brightness Sun altitude
Exits shadow 05:21:50 14° 274° (W) 1,644 4.6 -10.8°
Maximum altitude 05:23:45 19° 307° (NW) 1,431 4.3 -10.6°
Drops below altitude 10° 05:26:45 10° 352° (N) 1,898 5.3 -10.1°
Sets 05:29:32 0° 11° (NNE) 2,792 6.3 -9.7°
